Volver al catálogo

CZ-6A DEB

ActivoPO
NORAD 60883·DEBRIS·🇨🇳 China

Lanzado Aug 6, 2024 desde Taiyuan Satellite Launch Center

Loading…

Próximos Pases (próximas 24 horas)

TLE

ActualizadoSource: Space-Track

Época: Sep 14, 2026, 09:27 UTC

1 60883U 24140KN  26257.39422210  .00003432  00000-0  39416-3 0  9999
2 60883  88.8021 236.9210 0127867 234.5912 124.3317 14.79801654111160

Sigue CZ-6A DEB en tiempo real con AllMySat

Download on the App Store